Dallas/Ft Worth, TX

3:04 AM CST on December 06, 2019 (GMT -0600)
Dallas-Fort Worth International

Weather History for KDFW - November, 2019

Change the Weather History Date:

Friday, November 15, 2019

  Actual Average Record
Temperature  
Mean Temperature 46 °F 57 °F  
Max Temperature 60 °F 67 °F 87 °F (1960)
Min Temperature 33 °F 46 °F 20 °F (1940)
Degree Days  
Heating Degree Days 18 9  
Month to date heating degree days 205 103  
Since 1 July heating degree days 353 175  
Cooling Degree Days 0 1  
Month to date cooling degree days 4 23  
Year to date cooling degree days 3002 2746  
Moisture  
Dew Point 31 °F    
Average Humidity 57    
Maximum Humidity 89    
Minimum Humidity 31    
Precipitation  
Precipitation 0.00 in 0.09 in 1.69 in (1985)
Month to date precipitation 0.75 1.56  
Year to date precipitation 32.30 32.44  
Snow  
Snow 0.00 in 0.00 in T in (1997)
Month to date snowfall 0.0 0.0  
Since 1 July snowfall 0.0 0.0  
Since 1 September snowfall 0.0 0.0  
Snow Depth 0.00 in    
Sea Level Pressure  
Sea Level Pressure 30.35 in    
Wind  
Wind Speed 5 mph ()    
Max Wind Speed 10 mph    
Max Gust Speed 13 mph    
Visibility 10.0 miles    
Events      
T = Trace of Precipitation, MM = Missing Value Source: Averaged Metar Reports

Daily Weather History Graph

Daily Weather History Graph

Search for Another Location

Airport or City:

Astronomy

Nov. 15, 2019 Rise Set
Actual Time 6:58 AM CST 5:26 PM CST
Civil Twilight 6:32 AM CST 5:52 PM CST
Nautical Twilight 6:02 AM CST 6:22 PM CST
Astronomical Twilight 5:33 AM CST 6:52 PM CST
Moon 8:08 PM CST (11/15) 9:50 AM CST (11/15)
Length of Visible Light 11h 20m
Length of Day
10h 28m
Waning Gibbous, 90% of the Moon is Illuminated
Nov 15
Waning Gibbous
Nov 19
Last Quarter
Nov 26
New
Dec 4
First Quarter
Dec 11
Full

Hourly Weather History & Observations

Time (CST) Temp. Windchill Dew Point Humidity Pressure Visibility Wind Dir Wind Speed Gust Speed Precip Events Conditions
12:53 AM 39.9 °F 35.1 °F 33.1 °F 77% 30.40 in 10.0 mi NW 6.9 mph - N/A   Clear
1:53 AM 37.9 °F 32.1 °F 32.0 °F 79% 30.39 in 10.0 mi NNW 8.1 mph - N/A   Clear
2:53 AM 37.0 °F 31.0 °F 32.0 °F 82% 30.40 in 10.0 mi NW 8.1 mph - N/A   Clear
3:53 AM 35.1 °F 29.3 °F 30.9 °F 85% 30.40 in 10.0 mi North 6.9 mph - N/A   Clear
5:53 AM 35.1 °F 31.0 °F 32.0 °F 89% 30.40 in 10.0 mi NNW 4.6 mph - N/A   Clear
6:53 AM 34.0 °F 28.0 °F 30.9 °F 89% 30.41 in 10.0 mi NNW 6.9 mph - N/A   Clear
7:53 AM 39.9 °F 36.7 °F 35.1 °F 83% 30.42 in 10.0 mi North 4.6 mph - N/A   Clear
8:53 AM 45.0 °F 43.5 °F 36.0 °F 71% 30.43 in 10.0 mi North 3.5 mph - N/A   Clear
9:53 AM 50.0 °F - 32.0 °F 50% 30.42 in 10.0 mi East 4.6 mph - N/A   Clear
10:53 AM 53.1 °F - 30.0 °F 41% 30.42 in 10.0 mi NE 6.9 mph - N/A   Clear
11:53 AM 55.9 °F - 30.9 °F 39% 30.39 in 10.0 mi Variable 5.8 mph - N/A   Clear
12:53 PM 57.0 °F - 30.0 °F 36% 30.35 in 10.0 mi Variable 4.6 mph - N/A   Clear
1:53 PM 59.0 °F - 28.0 °F 31% 30.33 in 10.0 mi North 6.9 mph - N/A   Clear
2:53 PM 59.0 °F - 28.0 °F 31% 30.30 in 10.0 mi North 4.6 mph - N/A   Clear
3:53 PM 59.0 °F - 28.9 °F 32% 30.29 in 10.0 mi Calm Calm - N/A   Clear
4:53 PM 57.9 °F - 28.9 °F 33% 30.28 in 10.0 mi North 3.5 mph - N/A   Clear
5:53 PM 54.0 °F - 28.9 °F 38% 30.28 in 10.0 mi Calm Calm - N/A   Partly Cloudy
6:53 PM 51.1 °F - 28.9 °F 43% 30.27 in 10.0 mi Calm Calm - N/A   Clear
7:53 PM 48.0 °F - 28.9 °F 48% 30.27 in 10.0 mi Calm Calm - N/A   Clear
8:53 PM 48.0 °F - 30.9 °F 52% 30.28 in 10.0 mi SE 3.5 mph - N/A   Partly Cloudy
9:53 PM 45.0 °F 43.5 °F 30.0 °F 56% 30.27 in 10.0 mi SE 3.5 mph - N/A   Partly Cloudy
10:53 PM 45.0 °F 42.6 °F 28.9 °F 53% 30.27 in 10.0 mi South 4.6 mph - N/A   Scattered Clouds
11:53 PM 43.0 °F - 30.9 °F 62% 30.27 in 10.0 mi Calm Calm - N/A   Partly Cloudy